Voltar ao catálogo

KUIPER-00250

AtivoComunicaçõesLEO
NORAD 67155·PAYLOAD·🇺🇸 United States

Lançado Dec 15, 2025 de Cape Canaveral Space Force Station

Loading…

Próximas Passagens (próximas 24 horas)

TLE

AtualizadoSource: CelesTrak SupGP

Época: Sep 14, 2026, 20:29 UTC

1 67155C 25301Y   26257.85365741  .00000658  00000+0  86181-4 0  2579
2 67155  51.8989 314.1075 0000667  61.2214  20.0036 14.79930197    14

Acompanhe KUIPER-00250 em tempo real com AllMySat

Download on the App Store